{"data":{"norad_id":69254,"intl_designator":"2026-117S","name":"STARLINK-37517","alt_names":[],"object_type":"PAYLOAD","status":"ACTIVE","operator":null,"country":"US","launch_date":"2026-05-29","launch_site_code":"AFETR","launch_vehicle":null,"mission":null,"orbit_class":"UNKNOWN","rcs_meters":null,"size_class":null,"mass_kg":null,"dimensions":null,"purposes":["comms"],"wikipedia_slug":null,"has_3d_model":false,"image_url":null,"decayed_at":null,"tle_current":{"epoch":"2026-09-19T23:55:55.705728Z","epoch_age_seconds":70658,"freshness":"FRESH","line1":"1 69254U 26117S   26262.99717252  .00023574  00000+0  70631-3 0  9993","line2":"2 69254  53.1556 155.8068 0001277  91.4696 268.6452 15.34414434 17596","mean_motion":15.34414434,"eccentricity":0.0001277,"inclination_deg":53.1556,"raan_deg":155.8068,"arg_perigee_deg":91.4696,"mean_anomaly_deg":268.6452,"bstar":0.00070631,"rev_number":1759,"period_min":93.846875269944,"perigee_km":461.78676983331,"apogee_km":463.53390947385,"semimajor_km":6840.7973396536,"source":"CELESTRAK","updated_at":"2026-09-20T09:00:44.150796Z"}}}